| time (UTC) | temp F | wind direction | speed MPH | gust MPH | rain 1hr in | rain 24hr in | rain mn in | humidity % | barometer mb |
| 20260506062309 | 75 | 161 | 7.0 | 14.0 | 0.00 | 0.00 | 0.00 | 93 | 1009.6 |
| 20260506061809 | 75 | 174 | 7.0 | 14.0 | 0.00 | 0.00 | 0.00 | 93 | 1009.5 |
| 20260506061308 | 75 | 176 | 7.0 | 14.0 | 0.00 | 0.00 | 0.00 | 93 | 1009.5 |
| 20260506061254 | 75 | 171 | 7.0 | 17.0 | 0.00 | 0.00 | 0.00 | 93 | 1009.5 |
| 20260506060528 | 75 | 137 | 7.0 | 17.0 | 0.00 | 0.00 | 0.00 | 93 | 1009.4 |
| 20260506051254 | 75 | 166 | 7.0 | 17.0 | 0.00 | 0.00 | 0.00 | 93 | 1009.6 |
| 20260506050755 | 76 | 165 | 6.0 | 17.0 | 0.00 | 0.00 | 0.00 | 93 | 1009.8 |
| 20260506050255 | 75 | 173 | 5.0 | 11.0 | 0.00 | 0.00 | 0.00 | 93 | 1009.9 |
| 20260506044752 | 75 | 201 | 5.0 | 12.0 | 0.00 | 0.00 | 0.00 | 92 | 1009.5 |
| 20260506044252 | 75 | 190 | 5.0 | 14.0 | 0.00 | 0.00 | 0.00 | 92 | 1009.5 |
| 20260506043752 | 76 | 184 | 5.0 | 14.0 | 0.00 | 0.00 | 0.00 | 92 | 1009.6 |
| 20260506043252 | 76 | 197 | 5.0 | 11.0 | 0.00 | 0.00 | 0.00 | 92 | 1009.5 |
| 20260506043017 | 76 | 167 | 6.0 | 12.0 | 0.00 | 0.00 | 0.00 | 92 | 1009.6 |
| 20260506042531 | 76 | 160 | 6.0 | 12.0 | 0.00 | 0.00 | 0.00 | 92 | 1009.8 |
| 20260506042029 | 76 | 131 | 6.0 | 11.0 | 0.00 | 0.00 | 0.00 | 91 | 1009.3 |
| 20260506042003 | 76 | 157 | 6.0 | 11.0 | 0.00 | 0.00 | 0.00 | 91 | 1009.5 |
| 20260506040745 | 76 | 138 | 5.0 | 11.0 | 0.00 | 0.00 | 0.00 | 91 | 1009.4 |
| 20260506040242 | 76 | 198 | 5.0 | 11.0 | 0.00 | 0.00 | 0.00 | 91 | 1009.3 |
| 20260506035739 | 76 | 194 | 5.0 | 11.0 | 0.00 | 0.00 | 0.00 | 91 | 1009.3 |
| 20260506035239 | 76 | 165 | 5.0 | 10.0 | 0.00 | 0.00 | 0.00 | 90 | 1009.1 |
| 20260506034740 | 76 | 167 | 3.0 | 7.0 | 0.00 | 0.00 | 0.00 | 90 | 1009.3 |
| 20260506034240 | 76 | 155 | 3.0 | 7.0 | 0.00 | 0.00 | 0.00 | 89 | 1009.3 |
| 20260506033739 | 76 | 150 | 3.0 | 7.0 | 0.00 | 0.00 | 0.00 | 89 | 1009.1 |
| 20260506033238 | 76 | 155 | 3.0 | 9.0 | 0.00 | 0.00 | 0.00 | 89 | 1009.1 |
| 20260506032737 | 76 | 184 | 3.0 | 9.0 | 0.00 | 0.00 | 0.00 | 89 | 1009.0 |
| 20260506032459 | 77 | 155 | 3.0 | 10.0 | 0.00 | 0.00 | 0.00 | 88 | 1009.1 |
| 20260506031735 | 77 | 169 | 3.0 | 10.0 | 0.00 | 0.00 | 0.00 | 88 | 1009.0 |
| 20260506031233 | 77 | 175 | 4.0 | 8.0 | 0.00 | 0.00 | 0.00 | 88 | 1009.0 |
| 20260506030734 | 77 | 165 | 4.0 | 8.0 | 0.00 | 0.00 | 0.00 | 88 | 1008.9 |
| 20260506030233 | 77 | 155 | 4.0 | 10.0 | 0.00 | 0.00 | 0.00 | 88 | 1008.8 |
| 20260506025734 | 77 | 169 | 4.0 | 10.0 | 0.00 | 0.00 | 0.00 | 88 | 1008.8 |
| 20260506025233 | 77 | 161 | 4.0 | 7.0 | 0.00 | 0.00 | 0.00 | 88 | 1008.7 |
| 20260506025000 | 77 | 186 | 4.0 | 7.0 | 0.00 | 0.00 | 0.00 | 87 | 1008.7 |
| 20260506024234 | 77 | 165 | 4.0 | 7.0 | 0.00 | 0.00 | 0.00 | 87 | 1008.7 |
| 20260506023736 | 77 | 147 | 4.0 | 8.0 | 0.00 | 0.00 | 0.00 | 87 | 1008.6 |
| 20260506023506 | 78 | 178 | 4.0 | 8.0 | 0.00 | 0.00 | 0.00 | 87 | 1008.4 |
| 20260506022734 | 78 | 150 | 4.0 | 8.0 | 0.00 | 0.00 | 0.00 | 87 | 1008.4 |
| 20260506022234 | 78 | 160 | 4.0 | 8.0 | 0.00 | 0.00 | 0.00 | 87 | 1008.4 |
| 20260506021733 | 78 | 156 | 4.0 | 8.0 | 0.00 | 0.00 | 0.00 | 86 | 1008.3 |
| 20260506021231 | 78 | 134 | 3.0 | 8.0 | 0.00 | 0.00 | 0.00 | 86 | 1008.1 |
| 20260506020729 | 78 | 176 | 3.0 | 7.0 | 0.00 | 0.00 | 0.00 | 86 | 1008.2 |
| 20260506020228 | 78 | 154 | 3.0 | 7.0 | 0.00 | 0.00 | 0.00 | 85 | 1008.1 |
| 20260506015726 | 78 | 153 | 3.0 | 6.0 | 0.00 | 0.00 | 0.00 | 85 | 1008.1 |
| 20260506015225 | 78 | 152 | 2.0 | 6.0 | 0.00 | 0.00 | 0.00 | 84 | 1008.0 |
| 20260506014723 | 78 | 155 | 2.0 | 6.0 | 0.00 | 0.00 | 0.00 | 84 | 1007.9 |
| 20260506014225 | 79 | 163 | 3.0 | 7.0 | 0.00 | 0.00 | 0.00 | 84 | 1008.0 |
| 20260506013723 | 79 | 165 | 4.0 | 8.0 | 0.00 | 0.00 | 0.00 | 83 | 1007.8 |
| 20260506013224 | 79 | 146 | 4.0 | 9.0 | 0.00 | 0.00 | 0.00 | 83 | 1007.7 |
| 20260506013215 | 79 | 164 | 4.0 | 9.0 | 0.00 | 0.00 | 0.00 | 83 | 1007.7 |
| 20260506012221 | 79 | 150 | 4.0 | 10.0 | 0.00 | 0.00 | 0.00 | 82 | 1007.6 |
| 20260506011721 | 80 | 168 | 4.0 | 10.0 | 0.00 | 0.00 | 0.00 | 82 | 1007.6 |
| 20260506011442 | 80 | 163 | 5.0 | 11.0 | 0.00 | 0.00 | 0.00 | 82 | 1007.5 |
| 20260506010947 | 80 | 158 | 5.0 | 11.0 | 0.00 | 0.00 | 0.00 | 81 | 1007.5 |
| 20260506010213 | 80 | 159 | 4.0 | 11.0 | 0.00 | 0.00 | 0.00 | 81 | 1007.4 |
| 20260506005713 | 80 | 168 | 4.0 | 11.0 | 0.00 | 0.00 | 0.00 | 80 | 1007.4 |
| 20260506005213 | 81 | 155 | 5.0 | 10.0 | 0.00 | 0.00 | 0.00 | 80 | 1007.4 |
| 20260506004713 | 81 | 211 | 5.0 | 12.0 | 0.00 | 0.00 | 0.00 | 80 | 1007.4 |
| 20260506004213 | 81 | 136 | 5.0 | 14.0 | 0.00 | 0.00 | 0.00 | 79 | 1007.5 |
| 20260506003713 | 81 | 163 | 5.0 | 14.0 | 0.00 | 0.00 | 0.00 | 79 | 1007.5 |
| 20260506003449 | 82 | 144 | 6.0 | 14.0 | 0.00 | 0.00 | 0.00 | 79 | 1007.6 |
| 20260506002937 | 82 | 163 | 7.0 | 14.0 | 0.00 | 0.00 | 0.00 | 78 | 1007.6 |
| 20260506002211 | 82 | 0 | 5.0 | 12.0 | 0.00 | 0.00 | 0.00 | 78 | 1007.5 |
| 20260506001942 | 82 | 158 | 4.0 | 10.0 | 0.00 | 0.00 | 0.00 | 79 | 1007.6 |
| 20260506001208 | 82 | 193 | 5.0 | 13.0 | 0.00 | 0.00 | 0.00 | 79 | 1007.6 |
| 20260506000706 | 82 | 140 | 5.0 | 13.0 | 0.00 | 0.00 | 0.00 | 78 | 1007.6 |
| 20260506000440 | 82 | 180 | 6.0 | 14.0 | 0.00 | 0.00 | 0.00 | 79 | 1007.6 |
| 20260505235707 | 82 | 160 | 6.0 | 14.0 | 0.00 | 0.00 | 0.00 | 78 | 1007.6 |
| 20260505235205 | 82 | 156 | 5.0 | 12.0 | 0.00 | 0.00 | 0.00 | 77 | 1007.7 |
| 20260505234706 | 83 | 157 | 4.0 | 11.0 | 0.00 | 0.00 | 0.00 | 77 | 1007.6 |
| 20260505234205 | 83 | 155 | 5.0 | 11.0 | 0.00 | 0.00 | 0.00 | 77 | 1007.5 |
| 20260505233703 | 83 | 175 | 5.0 | 12.0 | 0.00 | 0.00 | 0.00 | 77 | 1007.5 |
| 20260505233157 | 83 | 197 | 7.0 | 15.0 | 0.00 | 0.00 | 0.00 | 76 | 1007.4 |
| 20260505232926 | 83 | 155 | 6.0 | 15.0 | 0.00 | 0.00 | 0.00 | 76 | 1007.4 |
| 20260505232144 | 83 | 155 | 6.0 | 12.0 | 0.00 | 0.00 | 0.00 | 76 | 1007.4 |
| 20260505231639 | 83 | 159 | 6.0 | 12.0 | 0.00 | 0.00 | 0.00 | 76 | 1007.3 |
| 20260505231134 | 83 | 186 | 6.0 | 13.0 | 0.00 | 0.00 | 0.00 | 76 | 1007.2 |
| 20260505230902 | 83 | 211 | 5.0 | 13.0 | 0.00 | 0.00 | 0.00 | 76 | 1007.3 |
| 20260505230402 | 83 | 160 | 6.0 | 12.0 | 0.00 | 0.00 | 0.00 | 76 | 1007.2 |
| 20260505225635 | 84 | 206 | 7.0 | 12.0 | 0.00 | 0.00 | 0.00 | 75 | 1007.2 |
| 20260505225135 | 84 | 176 | 6.0 | 12.0 | 0.00 | 0.00 | 0.00 | 75 | 1007.1 |
| 20260505224634 | 84 | 151 | 6.0 | 12.0 | 0.00 | 0.00 | 0.00 | 75 | 1007.1 |
| 20260505224135 | 84 | 170 | 6.0 | 12.0 | 0.00 | 0.00 | 0.00 | 75 | 1007.1 |
| 20260505223900 | 85 | 120 | 6.0 | 12.0 | 0.00 | 0.00 | 0.00 | 74 | 1007.1 |
| 20260505223136 | 85 | 201 | 6.0 | 12.0 | 0.00 | 0.00 | 0.00 | 74 | 1007.2 |
| 20260505222634 | 85 | 164 | 6.0 | 13.0 | 0.00 | 0.00 | 0.00 | 74 | 1007.1 |
| 20260505222135 | 85 | 157 | 8.0 | 14.0 | 0.00 | 0.00 | 0.00 | 74 | 1007.1 |
| 20260505221635 | 85 | 154 | 8.0 | 14.0 | 0.00 | 0.00 | 0.00 | 74 | 1007.0 |
| 20260505221134 | 85 | 173 | 7.0 | 14.0 | 0.00 | 0.00 | 0.00 | 74 | 1006.9 |
| 20260505220634 | 85 | 177 | 7.0 | 16.0 | 0.00 | 0.00 | 0.00 | 73 | 1006.9 |
| 20260505220135 | 85 | 121 | 8.0 | 16.0 | 0.00 | 0.00 | 0.00 | 74 | 1007.0 |
| 20260505215635 | 85 | 178 | 8.0 | 14.0 | 0.00 | 0.00 | 0.00 | 73 | 1007.0 |
| 20260505215133 | 86 | 146 | 7.0 | 14.0 | 0.00 | 0.00 | 0.00 | 72 | 1007.3 |
| 20260505214634 | 86 | 126 | 7.0 | 16.0 | 0.00 | 0.00 | 0.00 | 72 | 1007.2 |
| 20260505214625 | 86 | 181 | 7.0 | 16.0 | 0.00 | 0.00 | 0.00 | 72 | 1007.3 |
| 20260505213621 | 86 | 184 | 6.0 | 15.0 | 0.00 | 0.00 | 0.00 | 72 | 1007.2 |
| 20260505213117 | 87 | 197 | 7.0 | 15.0 | 0.00 | 0.00 | 0.00 | 71 | 1007.2 |
| 20260505212617 | 87 | 151 | 7.0 | 13.0 | 0.00 | 0.00 | 0.00 | 71 | 1007.1 |
| 20260505212351 | 87 | 180 | 7.0 | 15.0 | 0.00 | 0.00 | 0.00 | 72 | 1007.4 |
| 20260505211617 | 87 | 179 | 8.0 | 15.0 | 0.00 | 0.00 | 0.00 | 71 | 1007.4 |
| 20260505211117 | 87 | 137 | 8.0 | 15.0 | 0.00 | 0.00 | 0.00 | 72 | 1007.4 |
| 20260505210617 | 87 | 174 | 8.0 | 15.0 | 0.00 | 0.00 | 0.00 | 71 | 1007.5 |
| 20260505210117 | 87 | 142 | 8.0 | 14.0 | 0.00 | 0.00 | 0.00 | 73 | 1007.8 |
| 20260505205617 | 86 | 157 | 8.0 | 17.0 | 0.00 | 0.00 | 0.00 | 73 | 1007.8 |
| 20260505205117 | 86 | 180 | 8.0 | 17.0 | 0.00 | 0.00 | 0.00 | 74 | 1007.8 |
| 20260505204617 | 86 | 176 | 7.0 | 13.0 | 0.00 | 0.00 | 0.00 | 72 | 1007.8 |
| 20260505204117 | 86 | 144 | 6.0 | 12.0 | 0.00 | 0.00 | 0.00 | 73 | 1008.0 |
| 20260505203617 | 86 | 194 | 6.0 | 16.0 | 0.00 | 0.00 | 0.00 | 73 | 1008.0 |
| 20260505203117 | 86 | 182 | 6.0 | 16.0 | 0.00 | 0.00 | 0.00 | 72 | 1007.9 |
| 20260505202617 | 85 | 226 | 6.0 | 16.0 | 0.00 | 0.00 | 0.00 | 72 | 1008.0 |
| 20260505202117 | 85 | 166 | 8.0 | 18.0 | 0.00 | 0.00 | 0.00 | 74 | 1008.0 |
| 20260505201624 | 85 | 182 | 7.0 | 18.0 | 0.00 | 0.00 | 0.00 | 72 | 1008.2 |
| 20260505201118 | 85 | 159 | 7.0 | 17.0 | 0.00 | 0.00 | 0.00 | 74 | 1008.3 |
| 20260505200620 | 85 | 151 | 8.0 | 17.0 | 0.00 | 0.00 | 0.00 | 74 | 1008.3 |
| 20260505200114 | 85 | 156 | 7.0 | 17.0 | 0.00 | 0.00 | 0.00 | 74 | 1008.4 |
| 20260505195614 | 85 | 244 | 8.0 | 17.0 | 0.00 | 0.00 | 0.00 | 73 | 1008.4 |
| 20260505195114 | 85 | 195 | 7.0 | 17.0 | 0.00 | 0.00 | 0.00 | 73 | 1008.4 |
| 20260505194615 | 85 | 182 | 7.0 | 17.0 | 0.00 | 0.00 | 0.00 | 74 | 1008.4 |
| 20260505194114 | 85 | 204 | 7.0 | 15.0 | 0.00 | 0.00 | 0.00 | 74 | 1008.5 |
| 20260505193615 | 84 | 193 | 7.0 | 15.0 | 0.00 | 0.00 | 0.00 | 75 | 1008.5 |
| 20260505193118 | 84 | 135 | 7.0 | 15.0 | 0.00 | 0.00 | 0.00 | 76 | 1008.6 |
| 20260505193109 | 83 | 155 | 7.0 | 15.0 | 0.00 | 0.00 | 0.00 | 75 | 1008.7 |
| 20260505192115 | 83 | 165 | 6.0 | 16.0 | 0.00 | 0.00 | 0.00 | 75 | 1008.7 |
| 20260505191615 | 83 | 199 | 6.0 | 16.0 | 0.00 | 0.00 | 0.00 | 75 | 1008.7 |
| 20260505191115 | 83 | 239 | 8.0 | 19.0 | 0.00 | 0.00 | 0.00 | 74 | 1008.8 |
| 20260505190615 | 83 | 184 | 8.0 | 19.0 | 0.00 | 0.00 | 0.00 | 76 | 1008.8 |
| 20260505190115 | 83 | 176 | 7.0 | 14.0 | 0.00 | 0.00 | 0.00 | 75 | 1008.9 |
| 20260505185615 | 82 | 184 | 7.0 | 14.0 | 0.00 | 0.00 | 0.00 | 75 | 1009.0 |
| 20260505185115 | 82 | 196 | 6.0 | 14.0 | 0.00 | 0.00 | 0.00 | 77 | 1009.1 |
| 20260505184615 | 82 | 237 | 6.0 | 14.0 | 0.00 | 0.00 | 0.00 | 77 | 1009.3 |
| 20260505184114 | 81 | 199 | 7.0 | 14.0 | 0.00 | 0.00 | 0.00 | 77 | 1009.4 |
| 20260505183614 | 81 | 188 | 6.0 | 13.0 | 0.00 | 0.00 | 0.00 | 78 | 1009.4 |
| 20260505183340 | 80 | 202 | 6.0 | 13.0 | 0.00 | 0.00 | 0.00 | 78 | 1009.6 |
| 20260505182614 | 81 | 184 | 7.0 | 16.0 | 0.00 | 0.00 | 0.00 | 79 | 1009.6 |
| 20260505182115 | 80 | 188 | 8.0 | 16.0 | 0.00 | 0.00 | 0.00 | 79 | 1009.9 |
| 20260505181614 | 80 | 221 | 7.0 | 13.0 | 0.00 | 0.00 | 0.00 | 80 | 1009.9 |
| 20260505181117 | 80 | 153 | 7.0 | 13.0 | 0.00 | 0.00 | 0.00 | 79 | 1009.9 |
| 20260505180615 | 80 | 205 | 7.0 | 14.0 | 0.00 | 0.00 | 0.00 | 79 | 1009.9 |
| 20260505180117 | 80 | 146 | 7.0 | 16.0 | 0.00 | 0.00 | 0.00 | 80 | 1009.9 |
| 20260505175615 | 79 | 202 | 7.0 | 16.0 | 0.00 | 0.00 | 0.00 | 81 | 1010.0 |
| 20260505175114 | 79 | 198 | 7.0 | 14.0 | 0.00 | 0.00 | 0.00 | 82 | 1010.0 |
| 20260505174614 | 78 | 225 | 6.0 | 14.0 | 0.00 | 0.00 | 0.00 | 82 | 1010.1 |
| 20260505174340 | 77 | 199 | 6.0 | 14.0 | 0.00 | 0.00 | 0.00 | 84 | 1010.2 |
| 20260505173839 | 77 | 204 | 6.0 | 15.0 | 0.00 | 0.00 | 0.00 | 84 | 1010.3 |
| 20260505173114 | 76 | 189 | 6.0 | 15.0 | 0.00 | 0.00 | 0.00 | 85 | 1010.3 |
| 20260505172612 | 76 | 188 | 6.0 | 12.0 | 0.00 | 0.00 | 0.00 | 85 | 1010.3 |
| 20260505172559 | 76 | 198 | 6.0 | 14.0 | 0.00 | 0.00 | 0.00 | 85 | 1010.3 |
| 20260505171613 | 76 | 243 | 5.0 | 14.0 | 0.00 | 0.00 | 0.00 | 85 | 1010.4 |
| 20260505171112 | 76 | 251 | 5.0 | 12.0 | 0.00 | 0.00 | 0.00 | 86 | 1010.4 |
| 20260505170613 | 75 | 169 | 6.0 | 12.0 | 0.00 | 0.00 | 0.00 | 86 | 1010.4 |
| 20260505170110 | 75 | 217 | 6.0 | 15.0 | 0.00 | 0.00 | 0.00 | 87 | 1010.4 |
| 20260505165611 | 75 | 185 | 6.0 | 15.0 | 0.00 | 0.00 | 0.00 | 87 | 1010.4 |
| 20260505165109 | 75 | 178 | 6.0 | 14.0 | 0.00 | 0.00 | 0.00 | 87 | 1010.3 |
| 20260505164609 | 74 | 213 | 7.0 | 14.0 | 0.00 | 0.00 | 0.00 | 88 | 1010.4 |
| 20260505164109 | 74 | 190 | 6.0 | 13.0 | 0.00 | 0.00 | 0.00 | 88 | 1010.2 |
| 20260505163609 | 74 | 232 | 5.0 | 13.0 | 0.00 | 0.00 | 0.00 | 89 | 1010.3 |
| 20260505163107 | 74 | 158 | 6.0 | 13.0 | 0.00 | 0.00 | 0.00 | 89 | 1010.4 |
| 20260505162608 | 74 | 228 | 6.0 | 13.0 | 0.00 | 0.00 | 0.00 | 89 | 1010.3 |
| 20260505162327 | 74 | 200 | 5.0 | 13.0 | 0.00 | 0.00 | 0.00 | 89 | 1010.4 |
| 20260505161605 | 73 | 236 | 4.0 | 12.0 | 0.00 | 0.00 | 0.00 | 89 | 1010.4 |
| 20260505161106 | 73 | 254 | 5.0 | 14.0 | 0.00 | 0.00 | 0.00 | 90 | 1010.4 |
| 20260505160606 | 73 | 228 | 6.0 | 14.0 | 0.00 | 0.00 | 0.00 | 90 | 1010.4 |
| 20260505160105 | 73 | 215 | 7.0 | 16.0 | 0.00 | 0.00 | 0.00 | 90 | 1010.3 |
| 20260505153106 | 72 | 234 | 5.0 | 11.0 | 0.00 | 0.00 | 0.00 | 91 | 1010.3 |
| 20260505152832 | 72 | 197 | 5.0 | 13.0 | 0.00 | 0.00 | 0.00 | 91 | 1010.2 |
| 20260505152106 | 72 | 165 | 5.0 | 13.0 | 0.00 | 0.00 | 0.00 | 91 | 1010.2 |
| 20260505151607 | 72 | 231 | 6.0 | 13.0 | 0.00 | 0.00 | 0.00 | 91 | 1010.2 |
| 20260505151106 | 72 | 200 | 7.0 | 13.0 | 0.00 | 0.00 | 0.00 | 91 | 1010.2 |
| 20260505150604 | 72 | 198 | 6.0 | 13.0 | 0.00 | 0.00 | 0.00 | 91 | 1010.2 |
| 20260505140536 | 71 | 194 | 7.0 | 16.0 | 0.00 | 0.00 | 0.00 | 92 | 1009.5 |
| 20260505130253 | 71 | 173 | 6.0 | 13.0 | 0.00 | 0.00 | 0.00 | 92 | 1009.1 |
| 20260505125014 | 71 | 200 | 6.0 | 14.0 | 0.00 | 0.00 | 0.00 | 92 | 1009.0 |
| 20260505124513 | 71 | 214 | 6.0 | 14.0 | 0.00 | 0.00 | 0.00 | 92 | 1009.0 |
| 20260505124459 | 71 | 237 | 6.0 | 12.0 | 0.00 | 0.00 | 0.00 | 92 | 1009.0 |
| 20260505123514 | 70 | 192 | 6.0 | 15.0 | 0.00 | 0.00 | 0.00 | 92 | 1008.9 |
| 20260505123013 | 70 | 198 | 6.0 | 15.0 | 0.00 | 0.00 | 0.00 | 92 | 1008.7 |
| 20260505122512 | 70 | 186 | 7.0 | 18.0 | 0.00 | 0.00 | 0.00 | 92 | 1008.7 |
| 20260505122010 | 70 | 173 | 7.0 | 18.0 | 0.00 | 0.00 | 0.00 | 92 | 1008.6 |
| 20260505121510 | 70 | 213 | 6.0 | 12.0 | 0.00 | 0.00 | 0.00 | 92 | 1008.4 |
| 20260505121010 | 70 | 173 | 6.0 | 12.0 | 0.00 | 0.00 | 0.00 | 92 | 1008.4 |
| 20260505120509 | 70 | 192 | 6.0 | 12.0 | 0.00 | 0.00 | 0.00 | 92 | 1008.3 |
| 20260505120010 | 70 | 177 | 5.0 | 11.0 | 0.00 | 0.00 | 0.00 | 92 | 1008.4 |
| 20260505115507 | 70 | 180 | 5.0 | 10.0 | 0.00 | 0.00 | 0.00 | 92 | 1008.3 |
| 20260505115008 | 70 | 198 | 7.0 | 14.0 | 0.00 | 0.00 | 0.00 | 92 | 1008.2 |
| 20260505114508 | 70 | 208 | 7.0 | 14.0 | 0.00 | 0.00 | 0.00 | 92 | 1008.2 |
| 20260505114007 | 70 | 157 | 6.0 | 13.0 | 0.00 | 0.00 | 0.00 | 92 | 1008.2 |
| 20260505113506 | 70 | 142 | 6.0 | 12.0 | 0.00 | 0.00 | 0.00 | 92 | 1008.2 |
| 20260505113006 | 70 | 156 | 5.0 | 14.0 | 0.00 | 0.00 | 0.00 | 92 | 1008.2 |
| 20260505112503 | 70 | 169 | 5.0 | 14.0 | 0.00 | 0.00 | 0.00 | 92 | 1008.2 |
| 20260505112002 | 70 | 190 | 5.0 | 13.0 | 0.00 | 0.00 | 0.00 | 92 | 1008.3 |
| 20260505111501 | 70 | 202 | 5.0 | 11.0 | 0.00 | 0.00 | 0.00 | 92 | 1008.2 |
| 20260505111002 | 70 | 193 | 5.0 | 13.0 | 0.00 | 0.00 | 0.00 | 92 | 1008.2 |
| 20260505110503 | 70 | 155 | 5.0 | 13.0 | 0.00 | 0.00 | 0.00 | 92 | 1008.2 |
| 20260505102001 | 70 | 188 | 6.0 | 14.0 | 0.00 | 0.00 | 0.00 | 92 | 1008.3 |
| 20260505101501 | 70 | 184 | 6.0 | 13.0 | 0.00 | 0.00 | 0.00 | 92 | 1008.4 |
| 20260505101001 | 70 | 191 | 6.0 | 13.0 | 0.00 | 0.00 | 0.00 | 92 | 1008.4 |
| 20260505100723 | 70 | 228 | 7.0 | 15.0 | 0.00 | 0.00 | 0.00 | 91 | 1008.4 |
| 20260505100001 | 70 | 192 | 7.0 | 15.0 | 0.00 | 0.00 | 0.00 | 91 | 1008.4 |
| 20260505095729 | 70 | 194 | 6.0 | 14.0 | 0.00 | 0.00 | 0.00 | 91 | 1008.5 |
| 20260505095002 | 70 | 164 | 6.0 | 17.0 | 0.00 | 0.00 | 0.00 | 91 | 1008.6 |
| 20260505094501 | 70 | 225 | 7.0 | 17.0 | 0.00 | 0.00 | 0.00 | 91 | 1008.5 |
| 20260505094001 | 70 | 159 | 7.0 | 14.0 | 0.00 | 0.00 | 0.00 | 91 | 1008.5 |
| 20260505093502 | 70 | 182 | 6.0 | 13.0 | 0.00 | 0.00 | 0.00 | 91 | 1008.5 |
| 20260505093001 | 70 | 159 | 6.0 | 16.0 | 0.00 | 0.00 | 0.00 | 91 | 1008.5 |
| 20260505092727 | 70 | 207 | 6.0 | 16.0 | 0.00 | 0.00 | 0.00 | 91 | 1008.6 |
| 20260505092001 | 70 | 177 | 6.0 | 15.0 | 0.00 | 0.00 | 0.00 | 91 | 1008.5 |
| 20260505091501 | 70 | 203 | 7.0 | 15.0 | 0.00 | 0.00 | 0.00 | 91 | 1008.6 |
| 20260505091001 | 70 | 162 | 6.0 | 15.0 | 0.00 | 0.00 | 0.00 | 91 | 1008.6 |
| 20260505090500 | 70 | 203 | 6.0 | 13.0 | 0.00 | 0.00 | 0.00 | 91 | 1008.7 |
| 20260505090001 | 70 | 206 | 6.0 | 13.0 | 0.00 | 0.00 | 0.00 | 91 | 1008.8 |
| 20260505085501 | 70 | 146 | 5.0 | 11.0 | 0.00 | 0.00 | 0.00 | 91 | 1008.8 |
| 20260505085002 | 70 | 186 | 5.0 | 11.0 | 0.00 | 0.00 | 0.00 | 91 | 1008.8 |
| 20260505084501 | 70 | 177 | 6.0 | 14.0 | 0.00 | 0.00 | 0.00 | 91 | 1008.8 |
| 20260505084001 | 70 | 225 | 6.0 | 14.0 | 0.00 | 0.00 | 0.00 | 91 | 1008.9 |
| 20260505083501 | 70 | 211 | 6.0 | 12.0 | 0.00 | 0.00 | 0.00 | 91 | 1008.9 |
| 20260505083001 | 70 | 189 | 5.0 | 12.0 | 0.00 | 0.00 | 0.00 | 91 | 1008.9 |
| 20260505082502 | 70 | 199 | 6.0 | 16.0 | 0.00 | 0.00 | 0.00 | 91 | 1008.9 |
| 20260505082001 | 70 | 197 | 7.0 | 19.0 | 0.00 | 0.00 | 0.00 | 91 | 1008.7 |
| 20260505081502 | 70 | 170 | 7.0 | 19.0 | 0.00 | 0.00 | 0.00 | 91 | 1008.9 |
| 20260505081001 | 70 | 194 | 7.0 | 15.0 | 0.00 | 0.00 | 0.00 | 91 | 1009.0 |
| 20260505080502 | 70 | 211 | 6.0 | 16.0 | 0.00 | 0.00 | 0.00 | 90 | 1009.0 |
| 20260505080001 | 70 | 192 | 7.0 | 16.0 | 0.00 | 0.00 | 0.00 | 91 | 1009.0 |
| 20260505075508 | 71 | 196 | 7.0 | 16.0 | 0.00 | 0.00 | 0.00 | 91 | 1009.0 |
| 20260505075004 | 71 | 208 | 7.0 | 16.0 | 0.00 | 0.00 | 0.00 | 91 | 1009.2 |
| 20260505074459 | 71 | 165 | 8.0 | 15.0 | 0.00 | 0.00 | 0.00 | 90 | 1009.2 |
| 20260505073953 | 71 | 188 | 8.0 | 15.0 | 0.00 | 0.00 | 0.00 | 90 | 1009.2 |
| 20260505073440 | 71 | 210 | 8.0 | 17.0 | 0.00 | 0.00 | 0.00 | 90 | 1009.4 |
| 20260505073219 | 71 | 238 | 8.0 | 17.0 | 0.00 | 0.00 | 0.00 | 90 | 1009.4 |
| 20260505072445 | 71 | 188 | 8.0 | 17.0 | 0.00 | 0.00 | 0.00 | 90 | 1009.4 |
| 20260505071944 | 71 | 188 | 9.0 | 19.0 | 0.00 | 0.00 | 0.00 | 90 | 1009.4 |
| 20260505071441 | 71 | 180 | 9.0 | 19.0 | 0.00 | 0.00 | 0.00 | 90 | 1009.5 |
| 20260505070941 | 71 | 184 | 7.0 | 17.0 | 0.00 | 0.00 | 0.00 | 90 | 1009.6 |
| 20260505070440 | 71 | 198 | 6.0 | 17.0 | 0.00 | 0.00 | 0.00 | 90 | 1009.9 |
| 20260505065936 | 71 | 175 | 6.0 | 15.0 | 0.00 | 0.00 | 0.00 | 90 | 1009.9 |